Location: Unspecified
(0.0000°N, 0.0000°E)
Time: 09:25:56
(UTC+00:00)

SR - All Passes

Search period start: 25 May 2015 00:00
Search period end: 04 June 2015 00:00
Orbit: 585 x 876 km, 66.7° (Epoch: 24 May)

Date Brightness Start Highest point End Pass type
(mag) Time Alt. Az. Time Alt. Az. Time Alt. Az.
25 May - 06:52:58 10° SE 06:54:45 12° ESE 06:56:50 10° E daylight
25 May - 08:32:28 10° SW 08:36:56 33° WNW 08:40:59 10° N daylight
25 May - 19:15:47 10° N 19:20:19 34° ENE 19:25:18 10° SE visible
25 May - 20:59:07 10° WNW 21:02:30 16° WSW 21:05:42 10° SSW visible
26 May - 07:43:07 10° SSW 07:48:07 87° ESE 07:52:40 10° NNE daylight
26 May - 18:29:09 10° NE 18:31:25 13° ENE 18:34:09 10° E visible
26 May - 20:08:33 10° NW 20:13:24 39° WSW 20:18:34 10° S visible
27 May - 06:54:50 10° S 06:59:11 31° ESE 07:03:18 10° NE daylight
27 May - 08:38:59 10° W 08:41:07 12° WNW 08:42:52 10° NW daylight
27 May - 19:19:21 10° NNW 19:24:29 84° ENE 19:30:06 10° SSE visible
28 May - 06:08:30 10° SE 06:10:03 12° ESE 06:11:56 10° E daylight
28 May - 07:47:48 10° SW 07:52:14 34° WNW 07:56:18 10° N daylight
28 May - 18:31:06 10° N 18:35:39 33° ENE 18:40:38 10° SE visible
28 May - 20:14:20 10° WNW 20:17:49 17° WSW 20:21:09 10° SSW visible
29 May - 06:58:28 10° SSW 07:03:26 85° ESE 07:07:58 10° NNE daylight
29 May - 17:44:32 10° NE 17:46:45 13° ENE 17:49:24 10° E daylight
29 May - 19:23:49 10° NW 19:28:43 40° WSW 19:33:57 10° S visible
30 May - 06:10:13 10° S 06:14:29 30° ESE 06:18:33 10° NE daylight
30 May - 07:54:12 10° W 07:56:25 13° WNW 07:58:15 10° NW daylight
30 May - 18:34:38 10° NNW 18:39:48 82° ENE 18:45:27 10° SSE visible
31 May - 05:24:03 10° SE 05:25:21 11° ESE 05:27:00 10° E visible
31 May - 07:03:06 10° SW 07:07:33 34° WNW 07:11:37 10° N daylight
31 May - 17:46:26 10° N 17:50:58 32° ENE 17:55:57 10° SE daylight
31 May - 19:29:33 10° WNW 19:33:08 17° WSW 19:36:35 10° SSW visible
01 Jun - 06:13:48 10° SSW 06:18:44 82° ESE 06:23:14 10° NNE daylight
01 Jun - 16:59:55 10° NE 17:02:03 13° ENE 17:04:39 10° E daylight
01 Jun - 18:39:05 10° NW 18:44:02 41° WSW 18:49:19 10° S visible
02 Jun - 05:25:34 10° S 05:29:47 29° ESE 05:33:47 10° NE visible
02 Jun - 07:09:25 10° W 07:11:42 13° WNW 07:13:37 10° NW daylight
02 Jun - 17:49:55 10° NNW 17:55:07 80° ENE 18:00:47 10° SSE daylight
03 Jun - 04:39:40 10° SE 04:40:39 11° ESE 04:41:58 10° E visible
03 Jun - 06:18:24 10° SW 06:22:50 35° WNW 06:26:55 10° N daylight
03 Jun - 17:01:44 10° N 17:06:17 32° ENE 17:11:15 10° SE daylight
03 Jun - 18:44:44 10° WNW 18:48:26 18° WSW 18:52:00 10° SSW visible
